Latest Weather Observations for Outer Harbor (Black Pole)

IDS60801

Issued at 10:32 pm CST Saturday 18 April 2015 (issued every 30 minutes, with the page automatically refreshed every 10 minutes)

About weather observations | Map of weather stations | Latest weather observations for SA | Other Formats
Station Details ID: 023052 Name: BLACK POLE Lat: -34.73 Lon: 138.47 Height: 8.0 m
Data from the previous 72 hours. | See also: Recent months for locations in South Australia
Date/Time
CST
Temp
°C
App
Temp
°C
Dew
Point
Rel
Hum
%
Delta-T
°C
Wind Press
QNH
hPa
Press
MSL
hPa
Rain
since 9 am
mm
Dir
 
Spd
km/h
Gust
km/h
Spd
kts
Gust
kts
18/10:30pm - - - - - S 32 43 17 23 - - -
18/10:00pm - - - - - S 44 56 24 30 - - -
18/09:54pm - - - - - SSW 37 56 20 30 - - -
18/09:30pm - - - - - SW 43 50 23 27 - - -
18/09:16pm - - - - - SSW 41 59 22 32 - - -
18/09:00pm - - - - - SW 39 48 21 26 - - -
18/08:30pm - - - - - SSW 37 46 20 25 - - -
18/08:00pm - - - - - SSW 41 52 22 28 - - -
18/07:30pm - - - - - SSW 37 46 20 25 - - -
18/07:00pm - - - - - SSW 37 48 20 26 - - -
18/06:30pm - - - - - SSW 41 50 22 27 - - -
18/06:00pm - - - - - SSW 44 57 24 31 - - -
18/05:30pm - - - - - SSW 39 46 21 25 - - -
18/05:00pm - - - - - SSW 46 56 25 30 - - -
18/04:30pm - - - - - SSW 46 56 25 30 - - -
18/04:00pm - - - - - SW 39 46 21 25 - - -
18/03:48pm - - - - - WSW 35 43 19 23 - - -
18/03:43pm - - - - - W 35 43 19 23 - - -
18/03:30pm - - - - - WNW 33 43 18 23 - - -
18/03:00pm - - - - - WNW 32 39 17 21 - - -
18/02:30pm - - - - - WNW 32 37 17 20 - - -
18/02:00pm - - - - - WNW 32 37 17 20 - - -
18/01:30pm - - - - - NW 32 37 17 20 - - -
18/01:00pm - - - - - WNW 28 37 15 20 - - -
18/12:30pm - - - - - WNW 26 35 14 19 - - -
18/12:00pm - - - - - WNW 33 39 18 21 - - -
18/11:30am - - - - - NW 30 35 16 19 - - -
18/11:00am - - - - - NW 32 39 17 21 - - -
18/10:30am - - - - - NW 30 39 16 21 - - -
18/10:00am - - - - - NW 32 37 17 20 - - -
18/09:30am - - - - - NW 28 35 15 19 - - -
18/09:00am - - - - - NW 26 32 14 17 - - -
18/08:30am - - - - - NW 24 32 13 17 - - -
18/08:00am - - - - - NW 20 26 11 14 - - -
18/07:30am - - - - - WNW 17 20 9 11 - - -
18/07:00am - - - - - W 22 28 12 15 - - -
18/06:30am - - - - - W 28 35 15 19 - - -
18/06:00am - - - - - W 22 28 12 15 - - -
18/05:30am - - - - - WNW 24 30 13 16 - - -
18/05:00am - - - - - WNW 30 35 16 19 - - -
18/04:30am - - - - - W 28 32 15 17 - - -
18/04:00am - - - - - W 28 33 15 18 - - -
18/03:30am - - - - - W 30 33 16 18 - - -
18/03:00am - - - - - NW 9 22 5 12 - - -
18/02:30am - - - - - ESE 4 6 2 3 - - -
18/02:00am - - - - - SSE 2 4 1 2 - - -
18/01:30am - - - - - SE 6 7 3 4 - - -
18/01:00am - - - - - SE 7 9 4 5 - - -
18/12:30am - - - - - SSE 13 15 7 8 - - -
18/12:00am - - - - - SSE 15 20 8 11 - - -
 
Date/Time
CST
Temp
°C
App
Temp
°C
Dew
Point
Rel
Hum
%
Delta-T
°C
Wind Press
QNH
hPa
Press
MSL
hPa
Rain
since 9 am
mm
Dir
 
Spd
km/h
Gust
km/h
Spd
kts
Gust
kts
17/11:30pm - - - - - SSW 20 24 11 13 - - -
17/11:00pm - - - - - S 6 9 3 5 - - -
17/10:30pm - - - - - S 6 7 3 4 - - -
17/10:00pm - - - - - ESE 7 9 4 5 - - -
17/09:30pm - - - - - SE 7 11 4 6 - - -
17/09:00pm - - - - - SSE 15 19 8 10 - - -
17/08:30pm - - - - - SSW 11 15 6 8 - - -
17/08:00pm - - - - - SW 13 15 7 8 - - -
17/07:30pm - - - - - W 2 4 1 2 - - -
17/07:00pm - - - - - SSW 11 15 6 8 - - -
17/06:30pm - - - - - SSW 15 19 8 10 - - -
17/06:00pm - - - - - S 9 17 5 9 - - -
17/05:30pm - - - - - SSE 11 13 6 7 - - -
17/05:00pm - - - - - SE 9 13 5 7 - - -
17/04:30pm - - - - - SE 13 15 7 8 - - -
17/04:00pm - - - - - S 11 15 6 8 - - -
17/03:30pm - - - - - SSW 13 17 7 9 - - -
17/03:00pm - - - - - SSW 15 19 8 10 - - -
17/02:30pm - - - - - SSW 13 17 7 9 - - -
17/02:00pm - - - - - S 11 13 6 7 - - -
17/01:30pm - - - - - SSE 9 15 5 8 - - -
17/01:00pm - - - - - ESE 13 17 7 9 - - -
17/12:30pm - - - - - ESE 13 17 7 9 - - -
17/12:00pm - - - - - SE 13 17 7 9 - - -
17/11:30am - - - - - ESE 11 15 6 8 - - -
17/11:00am - - - - - SSE 11 13 6 7 - - -
17/10:30am - - - - - SSE 11 17 6 9 - - -
17/10:00am - - - - - SSE 17 20 9 11 - - -
17/09:30am - - - - - SSE 15 17 8 9 - - -
17/09:00am - - - - - SE 15 20 8 11 - - -
17/08:30am - - - - - ESE 15 20 8 11 - - -
17/08:00am - - - - - ESE 17 20 9 11 - - -
17/07:30am - - - - - SE 20 24 11 13 - - -
17/07:00am - - - - - SE 13 19 7 10 - - -
17/06:30am - - - - - SSE 9 15 5 8 - - -
17/06:00am - - - - - SSE 15 20 8 11 - - -
17/05:30am - - - - - SSE 19 24 10 13 - - -
17/05:00am - - - - - SSE 13 17 7 9 - - -
17/04:30am - - - - - SSE 13 17 7 9 - - -
17/04:00am - - - - - SSE 13 15 7 8 - - -
17/03:30am - - - - - SE 19 20 10 11 - - -
17/03:00am - - - - - SE 13 17 7 9 - - -
17/02:30am - - - - - ESE 7 11 4 6 - - -
17/02:00am - - - - - SE 9 13 5 7 - - -
17/01:30am - - - - - ESE 9 13 5 7 - - -
17/01:00am - - - - - ESE 9 11 5 6 - - -
17/12:30am - - - - - E 13 17 7 9 - - -
17/12:00am - - - - - ESE 11 15 6 8 - - -
 
Date/Time
CST
Temp
°C
App
Temp
°C
Dew
Point
Rel
Hum
%
Delta-T
°C
Wind Press
QNH
hPa
Press
MSL
hPa
Rain
since 9 am
mm
Dir
 
Spd
km/h
Gust
km/h
Spd
kts
Gust
kts
16/11:30pm - - - - - ESE 13 17 7 9 - - -
16/11:00pm - - - - - SE 20 26 11 14 - - -
16/10:30pm - - - - - SE 13 17 7 9 - - -
16/10:00pm - - - - - SE 20 24 11 13 - - -
16/09:30pm - - - - - ESE 20 24 11 13 - - -
16/09:00pm - - - - - ESE 17 20 9 11 - - -
16/08:30pm - - - - - ESE 17 20 9 11 - - -
16/08:00pm - - - - - ESE 13 17 7 9 - - -
16/07:30pm - - - - - SE 11 13 6 7 - - -
16/07:00pm - - - - - SE 9 11 5 6 - - -
16/06:30pm - - - - - ESE 6 9 3 5 - - -
16/06:00pm - - - - - E 6 7 3 4 - - -
16/05:30pm - - - - - E 11 13 6 7 - - -
16/05:00pm - - - - - ESE 9 11 5 6 - - -
16/04:30pm - - - - - ESE 13 15 7 8 - - -
16/04:00pm - - - - - ESE 15 19 8 10 - - -
16/03:30pm - - - - - SSE 7 11 4 6 - - -
16/03:00pm - - - - - SW 9 11 5 6 - - -
16/02:30pm - - - - - W 11 13 6 7 - - -
16/02:00pm - - - - - WNW 7 11 4 6 - - -
16/01:30pm - - - - - NNW 4 6 2 3 - - -
16/01:00pm - - - - - NNE 7 11 4 6 - - -
16/12:30pm - - - - - NE 7 11 4 6 - - -
16/12:00pm - - - - - ENE 9 11 5 6 - - -
16/11:30am - - - - - NE 6 9 3 5 - - -
16/11:00am - - - - - NE 7 9 4 5 - - -
16/10:30am - - - - - NNE 2 6 1 3 - - -
16/10:00am - - - - - WNW 2 4 1 2 - - -
16/09:30am - - - - - NW 7 9 4 5 - - -
16/09:00am - - - - - W 7 9 4 5 - - -
16/08:30am - - - - - CALM 0 4 0 2 - - -
16/08:00am - - - - - S 13 17 7 9 - - -
16/07:30am - - - - - NNE 6 9 3 5 - - -
16/07:00am - - - - - N 2 6 1 3 - - -
16/06:30am - - - - - NE 9 13 5 7 - - -
16/06:00am - - - - - N 20 28 11 15 - - -
16/05:30am - - - - - NNE 6 9 3 5 - - -
16/05:00am - - - - - SE 7 9 4 5 - - -
16/04:30am - - - - - SSE 13 17 7 9 - - -
16/04:00am - - - - - SSE 19 22 10 12 - - -
16/03:30am - - - - - S 20 26 11 14 - - -
16/03:00am - - - - - S 24 28 13 15 - - -
16/02:30am - - - - - SSW 19 22 10 12 - - -
16/02:00am - - - - - S 20 22 11 12 - - -
16/01:30am - - - - - S 19 20 10 11 - - -
16/01:00am - - - - - S 7 9 4 5 - - -
16/12:30am - - - - - SE 6 6 3 3 - - -
16/12:00am - - - - - SSE 6 7 3 4 - - -
 
Date/Time
CST
Temp
°C
App
Temp
°C
Dew
Point
Rel
Hum
%
Delta-T
°C
Wind Press
QNH
hPa
Press
MSL
hPa
Rain
since 9 am
mm
Dir
 
Spd
km/h
Gust
km/h
Spd
kts
Gust
kts
15/11:30pm - - - - - SE 11 11 6 6 - - -
15/11:00pm - - - - - SSE 13 15 7 8 - - -

Other Formats:

Comma delimited format used in spreadsheet applications
http://www.bom.gov.au/fwo/IDS60801/IDS60801.95675.axf

JavaScript Object Notation format (JSON) in row-major order
http://www.bom.gov.au/fwo/IDS60801/IDS60801.95675.json